,,,PA_Meas_PMT16A,,PR_Meas_QMR101_102,,RH_Meas_QMH101,,SR_Meas_QMS101,,TA_Meas_QMH101,,GenWind,,GenWind,
date,time,status,PA,status,PR,status,RH,status,SR,status,TA,status,DirAvg,status,SpdAvg,
2014-05-06, 00:00:05,VALID,1009.26,VALID,0,INVALID,109.582,VALID,0.112112,VALID,24.8633,VALID,281,VALID,0,
2014-05-06, 00:01:05,VALID,1009.22,VALID,0,INVALID,109.628,VALID,0,VALID,24.8633,VALID,281,VALID,0,
2014-05-06, 00:02:05,VALID,1009.2,VALID,0,INVALID,109.651,VALID,0.112112,VALID,24.8828,VALID,281,VALID,0,
2014-05-06, 00:03:05,VALID,1009.21,VALID,0,INVALID,109.735,VALID,0.112112,VALID,24.8633,VALID,281,VALID,0,
2014-05-06, 00:04:05,VALID,1009.18,VALID,0,INVALID,109.78,VALID,0,VALID,24.8633,VALID,281,VALID,0,
2014-05-06, 00:05:05,VALID,1009.2,VALID,0,INVALID,109.803,VALID,0,VALID,24.8652,VALID,281,VALID,0,
2014-05-06, 00:06:05,VALID,1009.2,VALID,0,INVALID,109.818,VALID,0,VALID,24.8652,VALID,281,VALID,0,
2014-05-06, 00:07:05,VALID,1009.17,VALID,0,INVALID,109.879,VALID,0,VALID,24.8652,VALID,281,VALID,0,
2014-05-06, 00:08:05,VALID,1009.18,VALID,0,INVALID,109.849,VALID,0,VALID,24.8652,VALID,281,VALID,0,
2014-05-06, 00:09:05,VALID,1009.15,VALID,0,INVALID,109.902,VALID,0,VALID,24.8457,VALID,281,VALID,0,
2014-05-06, 00:10:05,VALID,1009.11,VALID,0,INVALID,109.91,VALID,0,VALID,24.8067,VALID,281,VALID,0,
2014-05-06, 00:11:05,VALID,1009.1,VALID,0,INVALID,109.91,VALID,0,VALID,24.8244,VALID,281,VALID,0,
2014-05-06, 00:12:05,VALID,1009.08,VALID,0,INVALID,109.902,VALID,0,VALID,24.8457,VALID,281,VALID,0,
2014-05-06, 00:13:05,VALID,1009.03,VALID,0,INVALID,109.895,VALID,0,VALID,24.8652,VALID,281,VALID,0,
2014-05-06, 00:14:05,VALID,1009.04,VALID,0,INVALID,109.91,VALID,0,VALID,24.8652,VALID,281,VALID,0,
2014-05-06, 00:15:05,VALID,1009.01,VALID,0,INVALID,109.94,VALID,0,VALID,24.8652,VALID,281,VALID,0,
2014-05-06, 00:16:05,VALID,1008.99,VALID,0,INVALID,109.918,VALID,0,VALID,24.8847,VALID,281,VALID,0,
2014-05-06, 00:17:05,VALID,1008.97,VALID,0,INVALID,109.948,VALID,0,VALID,24.8847,VALID,281,VALID,0,
2014-05-06, 00:18:05,VALID,1008.93,VALID,0,INVALID,109.956,VALID,0,VALID,24.8438,VALID,281,VALID,0,
2014-05-06, 00:19:05,VALID,1008.91,VALID,0,INVALID,109.986,VALID,0,VALID,24.8828,VALID,281,VALID,0,
2014-05-06, 00:20:05,VALID,1008.85,VALID,0,INVALID,110.009,VALID,0,VALID,24.8828,VALID,281,VALID,0,
2014-05-06, 00:21:05,VALID,1008.85,VALID,0,INVALID,110.04,VALID,0,VALID,24.8438,VALID,281,VALID,0,
2014-05-06, 00:22:05,VALID,1008.82,VALID,0,INVALID,110.009,VALID,0.112112,VALID,24.8438,VALID,281,VALID,0,
2014-05-06, 00:23:05,VALID,1008.8,VALID,0,INVALID,110.047,VALID,0,VALID,24.8438,VALID,281,VALID,0,
2014-05-06, 00:24:05,VALID,1008.82,VALID,0,INVALID,110.047,VALID,0.112112,VALID,24.8633,VALID,281,VALID,0,
2014-05-06, 00:25:05,VALID,1008.83,VALID,0,INVALID,110.017,VALID,0.112112,VALID,24.8828,VALID,281,VALID,0,
2014-05-06, 00:26:05,VALID,1008.85,VALID,0,INVALID,110.032,VALID,0,VALID,24.8828,VALID,281,VALID,0,
2014-05-06, 00:27:05,VALID,1008.9,VALID,0,INVALID,110.078,VALID,0.112112,VALID,24.8828,VALID,281,VALID,0,
2014-05-06, 00:28:05,VALID,1008.88,VALID,0,INVALID,110.078,VALID,0.112112,VALID,24.8828,VALID,281,VALID,0,
2014-05-06, 00:29:05,VALID,1008.86,VALID,0,INVALID,110.085,VALID,0,VALID,24.8633,VALID,281,VALID,0,
2014-05-06, 00:30:05,VALID,1008.84,VALID,0,INVALID,110.116,VALID,0.112112,VALID,24.8633,VALID,281,VALID,0,
2014-05-06, 00:31:05,VALID,1008.81,VALID,0,INVALID,110.108,VALID,0.112112,VALID,24.8828,VALID,281,VALID,0,
2014-05-06, 00:32:05,VALID,1008.77,VALID,0,INVALID,110.124,VALID,0.112112,VALID,24.9023,VALID,281,VALID,0,
2014-05-06, 00:33:05,VALID,1008.76,VALID,0,INVALID,110.131,VALID,0.112112,VALID,24.8809,VALID,281,VALID,0,
2014-05-06, 00:34:05,VALID,1008.75,VALID,0,INVALID,110.093,VALID,0,VALID,24.9042,VALID,281,VALID,0,
2014-05-06, 00:35:05,VALID,1008.76,VALID,0,INVALID,110.101,VALID,0,VALID,24.9237,VALID,281,VALID,0,
2014-05-06, 00:36:05,VALID,1008.73,VALID,0,INVALID,110.139,VALID,0,VALID,24.9432,VALID,281,VALID,0,
2014-05-06, 00:37:05,VALID,1008.75,VALID,0,INVALID,110.154,VALID,0,VALID,24.9237,VALID,281,VALID,0,
2014-05-06, 00:38:05,VALID,1008.76,VALID,0,INVALID,110.185,VALID,0,VALID,24.9237,VALID,281,VALID,0,
2014-05-06, 00:39:05,VALID,1008.76,VALID,0,INVALID,110.246,VALID,0,VALID,24.9237,VALID,281,VALID,0,
2014-05-06, 00:40:05,VALID,1008.74,VALID,0,INVALID,110.246,VALID,0,VALID,24.9042,VALID,281,VALID,0,
2014-05-06, 00:41:05,VALID,1008.77,VALID,0,INVALID,110.261,VALID,0,VALID,24.8847,VALID,281,VALID,0,
2014-05-06, 00:42:05,VALID,1008.75,VALID,0,INVALID,110.307,VALID,0,VALID,24.8652,VALID,281,VALID,0,
2014-05-06, 00:43:05,VALID,1008.78,VALID,0,INVALID,110.329,VALID,0,VALID,24.8457,VALID,281,VALID,0,
2014-05-06, 00:44:05,VALID,1008.74,VALID,0,INVALID,110.329,VALID,0,VALID,24.8262,VALID,281,VALID,0,
2014-05-06, 00:45:05,VALID,1008.75,VALID,0,INVALID,110.322,VALID,0,VALID,24.8262,VALID,281,VALID,0,
2014-05-06, 00:46:05,VALID,1008.74,VALID,0,INVALID,110.307,VALID,0,VALID,24.8049,VALID,281,VALID,0,
2014-05-06, 00:47:05,VALID,1008.73,VALID,0,INVALID,110.329,VALID,0,VALID,24.8457,VALID,281,VALID,0,
2014-05-06, 00:48:05,VALID,1008.71,VALID,0,INVALID,110.345,VALID,0,VALID,24.8457,VALID,281,VALID,0,
2014-05-06, 00:49:05,VALID,1008.69,VALID,0,INVALID,110.368,VALID,0,VALID,24.8457,VALID,281,VALID,0,
2014-05-06, 00:50:05,VALID,1008.7,VALID,0,INVALID,110.36,VALID,0,VALID,24.8262,VALID,281,VALID,0,
2014-05-06, 00:51:05,VALID,1008.71,VALID,0,INVALID,110.345,VALID,0,VALID,24.8476,VALID,281,VALID,0,
2014-05-06, 00:52:05,VALID,1008.69,VALID,0,INVALID,110.352,VALID,0,VALID,24.8067,VALID,281,VALID,0,
2014-05-06, 00:53:05,VALID,1008.68,VALID,0,INVALID,110.413,VALID,0,VALID,24.7872,VALID,281,VALID,0,
2014-05-06, 00:54:05,VALID,1008.68,VALID,0,INVALID,110.406,VALID,0,VALID,24.7678,VALID,281,VALID,0,
2014-05-06, 00:55:05,VALID,1008.69,VALID,0,INVALID,110.421,VALID,0,VALID,24.7483,VALID,281,VALID,0,
2014-05-06, 00:56:05,VALID,1008.69,VALID,0,INVALID,110.413,VALID,0,VALID,24.7112,VALID,281,VALID,0,
2014-05-06, 00:57:05,VALID,1008.74,VALID,0,INVALID,110.413,VALID,0,VALID,24.7093,VALID,281,VALID,0,
2014-05-06, 00:58:05,VALID,1008.74,VALID,0,INVALID,110.436,VALID,0,VALID,24.6898,VALID,281,VALID,0,
2014-05-06, 00:59:05,VALID,1008.72,VALID,0,INVALID,110.459,VALID,0,VALID,24.6703,VALID,281,VALID,0,
2014-05-06, 01:00:05,VALID,1008.71,VALID,0,INVALID,110.429,VALID,0,VALID,24.6508,VALID,281,VALID,0,
2014-05-06, 01:01:05,VALID,1008.7,VALID,0,INVALID,110.413,VALID,0,VALID,24.6508,VALID,281,VALID,0,
2014-05-06, 01:02:05,VALID,1008.69,VALID,0,INVALID,110.383,VALID,0,VALID,24.6508,VALID,281,VALID,0,
2014-05-06, 01:03:05,VALID,1008.69,VALID,0,INVALID,110.398,VALID,0,VALID,24.6898,VALID,281,VALID,0,
2014-05-06, 01:04:05,VALID,1008.71,VALID,0,INVALID,110.398,VALID,0,VALID,24.6489,VALID,281,VALID,0,
2014-05-06, 01:05:05,VALID,1008.74,VALID,0,INVALID,110.451,VALID,0,VALID,24.6703,VALID,281,VALID,0,
2014-05-06, 01:06:05,VALID,1008.74,VALID,0,INVALID,110.421,VALID,0,VALID,24.6294,VALID,281,VALID,0,
2014-05-06, 01:07:05,VALID,1008.74,VALID,0,INVALID,110.436,VALID,0,VALID,24.6313,VALID,281,VALID,0,
2014-05-06, 01:08:05,VALID,1008.7,VALID,0,INVALID,110.444,VALID,0,VALID,24.6313,VALID,281,VALID,0,
2014-05-06, 01:09:05,VALID,1008.7,VALID,0,INVALID,110.444,VALID,0,VALID,24.6118,VALID,281,VALID,0,
2014-05-06, 01:10:05,VALID,1008.66,VALID,0,INVALID,110.444,VALID,0,VALID,24.6118,VALID,281,VALID,0,
2014-05-06, 01:11:05,VALID,1008.66,VALID,0,INVALID,110.421,VALID,0,VALID,24.6313,VALID,281,VALID,0,
2014-05-06, 01:12:05,VALID,1008.62,VALID,0,INVALID,110.429,VALID,0,VALID,24.6313,VALID,281,VALID,0,
2014-05-06, 01:13:05,VALID,1008.63,VALID,0,INVALID,110.368,VALID,0,VALID,24.6508,VALID,281,VALID,0,
2014-05-06, 01:14:05,VALID,1008.63,VALID,0,INVALID,110.352,VALID,0,VALID,24.6508,VALID,281,VALID,0,
2014-05-06, 01:15:05,VALID,1008.62,VALID,0,INVALID,110.413,VALID,0,VALID,24.6508,VALID,281,VALID,0,
2014-05-06, 01:16:05,VALID,1008.63,VALID,0,INVALID,110.36,VALID,0,VALID,24.6703,VALID,281,VALID,0,
2014-05-06, 01:17:05,VALID,1008.59,VALID,0,INVALID,110.406,VALID,0,VALID,24.6508,VALID,281,VALID,0,
2014-05-06, 01:18:05,VALID,1008.6,VALID,0,INVALID,110.413,VALID,0,VALID,24.6313,VALID,281,VALID,0,
2014-05-06, 01:19:05,VALID,1008.6,VALID,0,INVALID,110.429,VALID,0,VALID,24.6118,VALID,281,VALID,0,
2014-05-06, 01:20:05,VALID,1008.59,VALID,0,INVALID,110.467,VALID,0,VALID,24.5923,VALID,281,VALID,0,
2014-05-06, 01:21:05,VALID,1008.6,VALID,0,INVALID,110.467,VALID,0,VALID,24.5728,VALID,281,VALID,0,
2014-05-06, 01:22:05,VALID,1008.58,VALID,0,INVALID,110.505,VALID,0,VALID,24.5533,VALID,281,VALID,0,
2014-05-06, 01:23:05,VALID,1008.63,VALID,0,INVALID,110.467,VALID,0,VALID,24.5533,VALID,281,VALID,0,
2014-05-06, 01:24:05,VALID,1008.62,VALID,0,INVALID,110.474,VALID,0,VALID,24.5533,VALID,281,VALID,0,
2014-05-06, 01:25:05,VALID,1008.59,VALID,0,INVALID,110.459,VALID,0,VALID,24.5533,VALID,281,VALID,0,
2014-05-06, 01:26:05,VALID,1008.55,VALID,0,INVALID,110.474,VALID,0,VALID,24.5338,VALID,281,VALID,0,
2014-05-06, 01:27:05,VALID,1008.52,VALID,0,INVALID,110.474,VALID,0,VALID,24.493,VALID,281,VALID,0,
2014-05-06, 01:28:05,VALID,1008.5,VALID,0,INVALID,110.459,VALID,0,VALID,24.4949,VALID,281,VALID,0,
2014-05-06, 01:29:05,VALID,1008.5,VALID,0,INVALID,110.467,VALID,0,VALID,24.493,VALID,281,VALID,0,
2014-05-06, 01:30:05,VALID,1008.47,VALID,0,INVALID,110.436,VALID,0,VALID,24.4949,VALID,281,VALID,0,
2014-05-06, 01:31:05,VALID,1008.45,VALID,0,INVALID,110.421,VALID,0,VALID,24.493,VALID,281,VALID,0,
2014-05-06, 01:32:05,VALID,1008.41,VALID,0,INVALID,110.429,VALID,0.112112,VALID,24.5144,VALID,281,VALID,0,
2014-05-06, 01:33:05,VALID,1008.41,VALID,0,INVALID,110.436,VALID,0,VALID,24.5144,VALID,281,VALID,0,
2014-05-06, 01:34:05,VALID,1008.4,VALID,0,INVALID,110.406,VALID,0,VALID,24.5125,VALID,281,VALID,0,
2014-05-06, 01:35:05,VALID,1008.42,VALID,0,INVALID,110.375,VALID,0,VALID,24.5106,VALID,281,VALID,0,
2014-05-06, 01:36:05,VALID,1008.42,VALID,0,INVALID,110.398,VALID,0,VALID,24.532,VALID,281,VALID,0,
2014-05-06, 01:37:05,VALID,1008.41,VALID,0,INVALID,110.368,VALID,0.112112,VALID,24.5515,VALID,281,VALID,0,
2014-05-06, 01:38:05,VALID,1008.4,VALID,0,INVALID,110.368,VALID,0.112112,VALID,24.571,VALID,281,VALID,0,
2014-05-06, 01:39:05,VALID,1008.4,VALID,0,INVALID,110.368,VALID,0.112112,VALID,24.5496,VALID,281,VALID,0,
2014-05-06, 01:40:05,VALID,1008.4,VALID,0,INVALID,110.337,VALID,0,VALID,24.5905,VALID,281,VALID,0,
2014-05-06, 01:41:05,VALID,1008.41,VALID,0,INVALID,110.352,VALID,0.112112,VALID,24.5905,VALID,281,VALID,0,
2014-05-06, 01:42:05,VALID,1008.41,VALID,0,INVALID,110.352,VALID,0.112112,VALID,24.5905,VALID,281,VALID,0,
2014-05-06, 01:43:05,VALID,1008.43,VALID,0,INVALID,110.383,VALID,0,VALID,24.571,VALID,281,VALID,0,
2014-05-06, 01:44:05,VALID,1008.43,VALID,0,INVALID,110.398,VALID,0,VALID,24.571,VALID,281,VALID,0,
2014-05-06, 01:45:05,VALID,1008.4,VALID,0,INVALID,110.406,VALID,0.112112,VALID,24.571,VALID,281,VALID,0,
2014-05-06, 01:46:05,VALID,1008.38,VALID,0,INVALID,110.352,VALID,0.112112,VALID,24.5496,VALID,281,VALID,0,
2014-05-06, 01:47:05,VALID,1008.37,VALID,0,INVALID,110.375,VALID,0,VALID,24.6118,VALID,281,VALID,0,
2014-05-06, 01:48:05,VALID,1008.4,VALID,0,INVALID,110.375,VALID,0,VALID,24.5905,VALID,281,VALID,0,
2014-05-06, 01:49:05,VALID,1008.38,VALID,0,INVALID,110.368,VALID,0.112112,VALID,24.571,VALID,281,VALID,0,
2014-05-06, 01:50:05,VALID,1008.39,VALID,0,INVALID,110.429,VALID,0.112112,VALID,24.5515,VALID,281,VALID,0,
2014-05-06, 01:51:05,VALID,1008.36,VALID,0,INVALID,110.436,VALID,0.112112,VALID,24.532,VALID,281,VALID,0,
2014-05-06, 01:52:05,VALID,1008.32,VALID,0,INVALID,110.406,VALID,0.112112,VALID,24.532,VALID,281,VALID,0,
2014-05-06, 01:53:05,VALID,1008.26,VALID,0,INVALID,110.406,VALID,0.112112,VALID,24.532,VALID,281,VALID,0,
2014-05-06, 01:54:05,VALID,1008.24,VALID,0,INVALID,110.375,VALID,0,VALID,24.571,VALID,281,VALID,0,
2014-05-06, 01:55:05,VALID,1008.25,VALID,0,INVALID,110.307,VALID,0,VALID,24.5886,VALID,281,VALID,0,
2014-05-06, 01:56:05,VALID,1008.24,VALID,0,INVALID,110.337,VALID,0.112112,VALID,24.6294,VALID,281,VALID,0,
2014-05-06, 01:57:05,VALID,1008.25,VALID,0,INVALID,110.284,VALID,0,VALID,24.6489,VALID,281,VALID,0,
2014-05-06, 01:58:05,VALID,1008.25,VALID,0,INVALID,110.314,VALID,0.112112,VALID,24.6489,VALID,281,VALID,0,
2014-05-06, 01:59:05,VALID,1008.25,VALID,0,INVALID,110.299,VALID,0,VALID,24.6489,VALID,281,VALID,0,
2014-05-06, 02:00:05,VALID,1008.26,VALID,0,INVALID,110.337,VALID,0,VALID,24.6294,VALID,281,VALID,0,
2014-05-06, 02:01:05,VALID,1008.22,VALID,0,INVALID,110.368,VALID,0.112112,VALID,24.6099,VALID,281,VALID,0,
2014-05-06, 02:02:05,VALID,1008.2,VALID,0,INVALID,110.375,VALID,0.112112,VALID,24.6294,VALID,281,VALID,0,
2014-05-06, 02:03:05,VALID,1008.2,VALID,0,INVALID,110.368,VALID,0.112112,VALID,24.6099,VALID,281,VALID,0,
2014-05-06, 02:04:05,VALID,1008.16,VALID,0,INVALID,110.368,VALID,0,VALID,24.5905,VALID,281,VALID,0,
2014-05-06, 02:05:05,VALID,1008.15,VALID,0,INVALID,110.406,VALID,0,VALID,24.5905,VALID,281,VALID,0,
2014-05-06, 02:06:05,VALID,1008.21,VALID,0,INVALID,110.413,VALID,0,VALID,24.5923,VALID,281,VALID,0,
2014-05-06, 02:07:05,VALID,1008.19,VALID,0,INVALID,110.421,VALID,0,VALID,24.5728,VALID,281,VALID,0,
2014-05-06, 02:08:05,VALID,1008.21,VALID,0,INVALID,110.459,VALID,0,VALID,24.5533,VALID,281,VALID,0,
2014-05-06, 02:09:05,VALID,1008.22,VALID,0,INVALID,110.474,VALID,0,VALID,24.5338,VALID,281,VALID,0,
2014-05-06, 02:10:05,VALID,1008.2,VALID,0,INVALID,110.451,VALID,0,VALID,24.5338,VALID,281,VALID,0,
2014-05-06, 02:11:05,VALID,1008.17,VALID,0,INVALID,110.436,VALID,0,VALID,24.532,VALID,281,VALID,0,
2014-05-06, 02:12:05,VALID,1008.15,VALID,0,INVALID,110.429,VALID,0,VALID,24.5728,VALID,281,VALID,0,
2014-05-06, 02:13:05,VALID,1008.14,VALID,0,INVALID,110.398,VALID,0,VALID,24.571,VALID,281,VALID,0,
2014-05-06, 02:14:05,VALID,1008.14,VALID,0,INVALID,110.398,VALID,0,VALID,24.5923,VALID,281,VALID,0,
2014-05-06, 02:15:05,VALID,1008.08,VALID,0,INVALID,110.383,VALID,0,VALID,24.5923,VALID,281,VALID,0,
2014-05-06, 02:16:05,VALID,1008.09,VALID,0,INVALID,110.352,VALID,0,VALID,24.6313,VALID,281,VALID,0,
2014-05-06, 02:17:05,VALID,1008.09,VALID,0,INVALID,110.345,VALID,0,VALID,24.6508,VALID,281,VALID,0,
2014-05-06, 02:18:05,VALID,1008.11,VALID,0,INVALID,110.322,VALID,0,VALID,24.6294,VALID,281,VALID,0,
2014-05-06, 02:19:05,VALID,1008.09,VALID,0,INVALID,110.337,VALID,0,VALID,24.6294,VALID,281,VALID,0,
2014-05-06, 02:20:05,VALID,1008.1,VALID,0,INVALID,110.36,VALID,0,VALID,24.6489,VALID,281,VALID,0,
2014-05-06, 02:21:05,VALID,1008.11,VALID,0,INVALID,110.36,VALID,0,VALID,24.6703,VALID,281,VALID,0,
2014-05-06, 02:22:05,VALID,1008.13,VALID,0,INVALID,110.398,VALID,0,VALID,24.6508,VALID,281,VALID,0,
2014-05-06, 02:23:05,VALID,1008.16,VALID,0,INVALID,110.398,VALID,0,VALID,24.6313,VALID,281,VALID,0,
2014-05-06, 02:24:05,VALID,1008.17,VALID,0,INVALID,110.398,VALID,0,VALID,24.6118,VALID,281,VALID,0,
2014-05-06, 02:25:05,VALID,1008.19,VALID,0,INVALID,110.413,VALID,0,VALID,24.5905,VALID,281,VALID,0,
2014-05-06, 02:26:05,VALID,1008.17,VALID,0,INVALID,110.444,VALID,0,VALID,24.6118,VALID,281,VALID,0,
2014-05-06, 02:27:05,VALID,1008.12,VALID,0,INVALID,110.406,VALID,0,VALID,24.6118,VALID,281,VALID,0,
2014-05-06, 02:28:05,VALID,1008.09,VALID,0,INVALID,110.429,VALID,0,VALID,24.6118,VALID,281,VALID,0,
2014-05-06, 02:29:05,VALID,1008.06,VALID,0,INVALID,110.413,VALID,0,VALID,24.6118,VALID,281,VALID,0,
2014-05-06, 02:30:05,VALID,1008.05,VALID,0,INVALID,110.383,VALID,0,VALID,24.6313,VALID,281,VALID,0,
2014-05-06, 02:31:05,VALID,1008.03,VALID,0,INVALID,110.39,VALID,0,VALID,24.6313,VALID,281,VALID,0,
2014-05-06, 02:32:05,VALID,1008.03,VALID,0,INVALID,110.413,VALID,0,VALID,24.6099,VALID,281,VALID,0,
2014-05-06, 02:33:05,VALID,1008.01,VALID,0,INVALID,110.406,VALID,0,VALID,24.6118,VALID,281,VALID,0,
2014-05-06, 02:34:05,VALID,1008.03,VALID,0,INVALID,110.459,VALID,0.112112,VALID,24.6099,VALID,281,VALID,0,
2014-05-06, 02:35:05,VALID,1008.01,VALID,0,INVALID,110.512,VALID,0.112112,VALID,24.571,VALID,281,VALID,0,
2014-05-06, 02:36:05,VALID,1008.02,VALID,0,INVALID,110.52,VALID,0.112112,VALID,24.5301,VALID,281,VALID,0,
2014-05-06, 02:37:04,VALID,1008.03,VALID,0,INVALID,110.535,VALID,0,VALID,24.5106,VALID,281,VALID,0,
2014-05-06, 02:38:04,VALID,1008.05,VALID,0,INVALID,110.535,VALID,0,VALID,24.5125,VALID,281,VALID,0,
2014-05-06, 02:39:04,VALID,1008.07,VALID,0,INVALID,110.505,VALID,0.112112,VALID,24.5125,VALID,281,VALID,0,
2014-05-06, 02:40:04,VALID,1008.11,VALID,0,INVALID,110.528,VALID,0.112112,VALID,24.5125,VALID,281,VALID,0,
2014-05-06, 02:41:04,VALID,1008.09,VALID,0,INVALID,110.482,VALID,0.112112,VALID,24.5515,VALID,281,VALID,0,
2014-05-06, 02:42:04,VALID,1008.11,VALID,0,INVALID,110.505,VALID,0.112112,VALID,24.532,VALID,281,VALID,0,
2014-05-06, 02:43:04,VALID,1008.11,VALID,0,INVALID,110.505,VALID,0.112112,VALID,24.532,VALID,281,VALID,0,
2014-05-06, 02:44:04,VALID,1008.13,VALID,0,INVALID,110.497,VALID,0.112112,VALID,24.4911,VALID,281,VALID,0,
2014-05-06, 02:45:04,VALID,1008.14,VALID,0,INVALID,110.543,VALID,0.112112,VALID,24.493,VALID,281,VALID,0,
2014-05-06, 02:46:04,VALID,1008.15,VALID,0,INVALID,110.528,VALID,0.112112,VALID,24.4717,VALID,281,VALID,0,
2014-05-06, 02:47:04,VALID,1008.18,VALID,0,INVALID,110.49,VALID,0.112112,VALID,24.493,VALID,281,VALID,0,
2014-05-06, 02:48:04,VALID,1008.2,VALID,0,INVALID,110.52,VALID,0,VALID,24.4735,VALID,281,VALID,0,
2014-05-06, 02:49:04,VALID,1008.24,VALID,0,INVALID,110.52,VALID,0.112112,VALID,24.4735,VALID,281,VALID,0,
2014-05-06, 02:50:04,VALID,1008.24,VALID,0,INVALID,110.497,VALID,0.112112,VALID,24.493,VALID,281,VALID,0,
2014-05-06, 02:51:04,VALID,1008.24,VALID,0,INVALID,110.436,VALID,0,VALID,24.532,VALID,281,VALID,0,
2014-05-06, 02:52:04,VALID,1008.22,VALID,0,INVALID,110.49,VALID,0.112112,VALID,24.532,VALID,281,VALID,0,
2014-05-06, 02:53:04,VALID,1008.21,VALID,0,INVALID,110.512,VALID,0.112112,VALID,24.493,VALID,281,VALID,0,
2014-05-06, 02:54:04,VALID,1008.19,VALID,0,INVALID,110.512,VALID,0.112112,VALID,24.493,VALID,281,VALID,0,
2014-05-06, 02:55:04,VALID,1008.17,VALID,0,INVALID,110.459,VALID,0.112112,VALID,24.5125,VALID,281,VALID,0,
2014-05-06, 02:56:04,VALID,1008.16,VALID,0,INVALID,110.444,VALID,0.112112,VALID,24.532,VALID,281,VALID,0,
2014-05-06, 02:57:04,VALID,1008.18,VALID,0,INVALID,110.467,VALID,0.112112,VALID,24.532,VALID,281,VALID,0,
2014-05-06, 02:58:04,VALID,1008.18,VALID,0,INVALID,110.406,VALID,0.112112,VALID,24.5515,VALID,281,VALID,0,
2014-05-06, 02:59:04,VALID,1008.14,VALID,0,INVALID,110.451,VALID,0.112112,VALID,24.532,VALID,281,VALID,0,
2014-05-06, 03:00:04,VALID,1008.1,VALID,0,INVALID,110.467,VALID,0,VALID,24.532,VALID,281,VALID,0,
2014-05-06, 03:01:04,VALID,1008.08,VALID,0,INVALID,110.406,VALID,0,VALID,24.5515,VALID,281,VALID,0,
2014-05-06, 03:02:04,VALID,1008.09,VALID,0,INVALID,110.413,VALID,0.112112,VALID,24.5515,VALID,281,VALID,0,
2014-05-06, 03:03:04,VALID,1008.11,VALID,0,INVALID,110.436,VALID,0.112112,VALID,24.5515,VALID,281,VALID,0,
2014-05-06, 03:04:04,VALID,1008.11,VALID,0,INVALID,110.451,VALID,0,VALID,24.5533,VALID,281,VALID,0,
2014-05-06, 03:05:04,VALID,1008.13,VALID,0,INVALID,110.421,VALID,0,VALID,24.5515,VALID,281,VALID,0,
2014-05-06, 03:06:04,VALID,1008.14,VALID,0,INVALID,110.39,VALID,0,VALID,24.5515,VALID,281,VALID,0,
2014-05-06, 03:07:04,VALID,1008.21,VALID,0,INVALID,110.444,VALID,0,VALID,24.5533,VALID,281,VALID,0,
2014-05-06, 03:08:04,VALID,1008.22,VALID,0,INVALID,110.444,VALID,0,VALID,24.532,VALID,281,VALID,0,
2014-05-06, 03:09:04,VALID,1008.22,VALID,0,INVALID,110.451,VALID,0,VALID,24.532,VALID,281,VALID,0,
2014-05-06, 03:10:04,VALID,1008.23,VALID,0,INVALID,110.467,VALID,0,VALID,24.5338,VALID,281,VALID,0,
2014-05-06, 03:11:04,VALID,1008.22,VALID,0,INVALID,110.474,VALID,0,VALID,24.5338,VALID,281,VALID,0,
2014-05-06, 03:12:04,VALID,1008.24,VALID,0,INVALID,110.49,VALID,0,VALID,24.5338,VALID,281,VALID,0,
2014-05-06, 03:13:04,VALID,1008.24,VALID,0,INVALID,110.505,VALID,0,VALID,24.5144,VALID,281,VALID,0,
2014-05-06, 03:14:04,VALID,1008.25,VALID,0,INVALID,110.497,VALID,0,VALID,24.5125,VALID,281,VALID,0,
2014-05-06, 03:15:04,VALID,1008.24,VALID,0,INVALID,110.474,VALID,0,VALID,24.5125,VALID,281,VALID,0,
2014-05-06, 03:16:04,VALID,1008.23,VALID,0,INVALID,110.474,VALID,0,VALID,24.5338,VALID,281,VALID,0,
2014-05-06, 03:17:04,VALID,1008.25,VALID,0,INVALID,110.482,VALID,0,VALID,24.5125,VALID,281,VALID,0,
2014-05-06, 03:18:04,VALID,1008.23,VALID,0,INVALID,110.467,VALID,0,VALID,24.5338,VALID,281,VALID,0,
2014-05-06, 03:19:04,VALID,1008.24,VALID,0,INVALID,110.482,VALID,0,VALID,24.5125,VALID,281,VALID,0,
2014-05-06, 03:20:04,VALID,1008.26,VALID,0,INVALID,110.497,VALID,0.112112,VALID,24.5106,VALID,281,VALID,0,
2014-05-06, 03:21:04,VALID,1008.24,VALID,0,INVALID,110.482,VALID,0.112112,VALID,24.532,VALID,281,VALID,0,
2014-05-06, 03:22:04,VALID,1008.24,VALID,0,INVALID,110.528,VALID,0.112112,VALID,24.5125,VALID,281,VALID,0,
2014-05-06, 03:23:04,VALID,1008.23,VALID,0,INVALID,110.528,VALID,0.112112,VALID,24.4911,VALID,281,VALID,0,
2014-05-06, 03:24:04,VALID,1008.25,VALID,0,INVALID,110.49,VALID,0.112112,VALID,24.4911,VALID,281,VALID,0,
2014-05-06, 03:25:04,VALID,1008.23,VALID,0,INVALID,110.467,VALID,0.112112,VALID,24.5106,VALID,281,VALID,0,
2014-05-06, 03:26:04,VALID,1008.22,VALID,0,INVALID,110.436,VALID,0.112112,VALID,24.5301,VALID,281,VALID,0,
2014-05-06, 03:27:04,VALID,1008.21,VALID,0,INVALID,110.421,VALID,0.112112,VALID,24.5496,VALID,281,VALID,0,
2014-05-06, 03:28:04,VALID,1008.19,VALID,0,INVALID,110.406,VALID,0.112112,VALID,24.5691,VALID,281,VALID,0,
2014-05-06, 03:29:04,VALID,1008.21,VALID,0,INVALID,110.406,VALID,0.112112,VALID,24.571,VALID,281,VALID,0,
2014-05-06, 03:30:04,VALID,1008.2,VALID,0,INVALID,110.429,VALID,0.112112,VALID,24.6099,VALID,281,VALID,0,
2014-05-06, 03:31:04,VALID,1008.21,VALID,0,INVALID,110.421,VALID,0,VALID,24.6099,VALID,281,VALID,0,
2014-05-06, 03:32:04,VALID,1008.19,VALID,0,INVALID,110.429,VALID,0,VALID,24.5905,VALID,281,VALID,0,
2014-05-06, 03:33:04,VALID,1008.17,VALID,0,INVALID,110.413,VALID,0.112112,VALID,24.5691,VALID,281,VALID,0,
2014-05-06, 03:34:04,VALID,1008.2,VALID,0,INVALID,110.505,VALID,0,VALID,24.5533,VALID,281,VALID,0,
2014-05-06, 03:35:04,VALID,1008.18,VALID,0,INVALID,110.444,VALID,0,VALID,24.532,VALID,281,VALID,0,
2014-05-06, 03:36:04,VALID,1008.23,VALID,0,INVALID,110.436,VALID,0,VALID,24.5728,VALID,281,VALID,0,
2014-05-06, 03:37:04,VALID,1008.17,VALID,0,INVALID,110.436,VALID,0,VALID,24.5515,VALID,281,VALID,0,
2014-05-06, 03:38:04,VALID,1008.18,VALID,0,INVALID,110.497,VALID,0,VALID,24.532,VALID,281,VALID,0,
2014-05-06, 03:39:04,VALID,1008.18,VALID,0,INVALID,110.459,VALID,0,VALID,24.532,VALID,281,VALID,0,
2014-05-06, 03:40:04,VALID,1008.21,VALID,0,INVALID,110.444,VALID,0,VALID,24.5728,VALID,281,VALID,0,
2014-05-06, 03:41:04,VALID,1008.21,VALID,0,INVALID,110.451,VALID,0,VALID,24.5515,VALID,281,VALID,0,
2014-05-06, 03:42:04,VALID,1008.22,VALID,0,INVALID,110.413,VALID,0,VALID,24.571,VALID,281,VALID,0,
2014-05-06, 03:43:04,VALID,1008.23,VALID,0,INVALID,110.398,VALID,0,VALID,24.6099,VALID,281,VALID,0,
2014-05-06, 03:44:04,VALID,1008.23,VALID,0,INVALID,110.398,VALID,0,VALID,24.6118,VALID,281,VALID,0,
2014-05-06, 03:45:04,VALID,1008.24,VALID,0,INVALID,110.413,VALID,0,VALID,24.6313,VALID,281,VALID,0,
2014-05-06, 03:46:04,VALID,1008.25,VALID,0,INVALID,110.39,VALID,0,VALID,24.6099,VALID,281,VALID,0,
2014-05-06, 03:47:04,VALID,1008.25,VALID,0,INVALID,110.413,VALID,0,VALID,24.6313,VALID,281,VALID,0,
2014-05-06, 03:48:04,VALID,1008.23,VALID,0,INVALID,110.36,VALID,0,VALID,24.6313,VALID,281,VALID,0,
2014-05-06, 03:49:04,VALID,1008.26,VALID,0,INVALID,110.375,VALID,0.112112,VALID,24.6276,VALID,281,VALID,0,
2014-05-06, 03:50:04,VALID,1008.26,VALID,0,INVALID,110.39,VALID,0.112112,VALID,24.6276,VALID,281,VALID,0,